Regional Weather Roundup
Issued by NWS Upton, NY

Current Version | Previous Version | Graphics & Text | Print | Product List | Glossary Off
Versions: 1 2 3 4 5 6 7 8 9 10 11 12 13 14 15 16 17 18 19 20 21 22 23 24 25 26 27

000
ASUS41 KOKX 230009
RWROKX

REGIONAL WEATHER ROUNDUP
NATIONAL WEATHER SERVICE NEW YORK NY
800 PM EDT THU JUN 22 2017

NOTE: "FAIR" INDICATES FEW OR NO CLOUDS BELOW 12,000 FEET WITH NO
SIGNIFICANT WEATHER AND/OR OBSTRUCTIONS TO VISIBILITY.

NYZ071-072-176-178-NJZ106-104-230100-
NEW YORK CITY METRO AREA

CITY           SKY/WX    TMP DP  RH WIND       PRES   REMARKS
Central Park   CLEAR     79  64  60 CALM      29.93R
Bronx Bot Gard   N/A     75  63  64 E3        29.90F
LaGuardia APRT MOCLDY    78  67  68 S9        29.90S
Kennedy INTL   MOCLDY    73  69  87 S15       29.92R
Breezy Point     N/A     68 N/A N/A S8          N/A
Newark/Liberty MOCLDY    82  65  56 E6        29.90R
Teterboro      CLEAR     83  63  50 S9        29.89R
$$

NYZ177-179-078>081-230100-
LONG ISLAND NEW YORK

CITY           SKY/WX    TMP DP  RH WIND       PRES   REMARKS
Jones Beach      N/A     70 N/A N/A S9          N/A
Matinecock PT    N/A    N/A N/A N/A S6G12       N/A
Farmingdale    NOT AVBL
MacArthur/ISP  MOCLDY    74  65  73 SW9       29.93R
Shirley        CLEAR     73  67  81 S7        29.94R
Mt Sinai Harb    N/A    N/A N/A N/A S10G16      N/A
Westhampton    CLEAR     71  62  73 SW6       29.96S
East Hampton   FAIR      69  62  80 SW7       29.93S
Montauk          N/A     69  62  78 SW7       29.94F
$$

NYZ052-065-067-230100-
HUDSON VALLEY

CITY           SKY/WX    TMP DP  RH WIND       PRES   REMARKS
White Plains   NOT AVBL
Larchmont Harb   N/A     72 N/A N/A S8          N/A
Croton O-T Hud   N/A     79 N/A N/A S6          N/A
Newburgh       NOT AVBL
Montgomery     PTCLDY    80  65  59 CALM      29.89R
Poughkeepsie   CLOUDY    80  64  58 SE3       29.88R
Albany         CLOUDY    78  59  51 CALM      29.88F
$$

NJZ001-105-106-008-010-013-015-019>022-104-230100-
NEW JERSEY

CITY           SKY/WX    TMP DP  RH WIND       PRES   REMARKS
Newark/Liberty MOCLDY    82  65  56 E6        29.90R
Teterboro      CLEAR     83  63  50 S9        29.89R
Caldwell       PTCLDY    85  64  49 SW3       29.90R
Somerville     CLOUDY    80  70  71 CALM      29.88S
Linden         FAIR      85  62  45 W7        29.90R
Perth Amboy      N/A     84 N/A N/A W5          N/A
Sussex         CLEAR     81  67  62 CALM      29.90S
Andover          N/A     79  66  64 CALM      29.92S
Trenton        CLOUDY    84  68  58 W6        29.92R
Millville      CLOUDY    80  76  87 CALM      29.93F
Atlantic City  CLOUDY    78  72  81 S7        29.94S
Wrightstown    CLOUDY    81  70  70 SW8       29.89S
Toms River     PTCLDY    78  72  81 S5        29.94R
Belmar         MOCLDY    79  69  71 S7        29.93R
$$

PAZ047>061-062-071-230100-
EASTERN PENNSYLVANIA

CITY           SKY/WX    TMP DP  RH WIND       PRES   REMARKS
Philadelphia   CLOUDY    85  68  56 SW12      29.93R
Allentown      CLOUDY    82  66  58 SW7       29.91S
Scranton       CLOUDY    82  66  58 SW7       29.92F
$$

CTZ002-004>006-009-010-012-RIZ004-006-007-MAZ004-011-015-230100-
SOUTHERN NEW ENGLAND
 IN CT

CITY           SKY/WX    TMP DP  RH WIND       PRES   REMARKS
Bradley INTL   CLOUDY    78  60  53 S10       29.90R
Hartford       MOCLDY    78  59  51 S10       29.90R
Danbury        CLOUDY    77  62  59 S8        29.93R
Wtrbury/Oxford MOCLDY    75  57  53 SW9       29.94S
Bridgeport     PTCLDY    77  62  59 SW7       29.92R
Meriden        CLOUDY    75  59  57 S7        29.91R
New Haven      NOT AVBL
Chester        FAIR      72  61  68 S6        29.93S
Groton         CLOUDY    69  58  67 CALM      29.92S
Wilimantic     PTCLDY    79  60  52 S7        29.92R

 IN RI

CITY           SKY/WX    TMP DP  RH WIND       PRES   REMARKS
Providence     MOCLDY    74  59  59 SW10      29.92R
Block Island   PTCLDY    68  59  73 SW13      29.94S
Westerly       PTCLDY    70  57  63 S5        29.94R
 IN MA

CITY           SKY/WX    TMP DP  RH WIND       PRES   REMARKS
Boston         MOCLDY    81  52  36 W9        29.88R
Worcester      CLOUDY    73  54  51 SW5       29.93R
Westfield      PTCLDY    79  61  53 MISG      29.89R
Provincetown   MOCLDY    66  58  75 SW10      29.91R
Nantucket      CLOUDY    64  58  80 SW8       29.94R
$$

ANZ330-335-338-340-345-350-353-355-230100-
COASTAL MARINE OBSERVATIONS


STATION/POSITION TIME  SKY/WX   TEMP    WIND        PRES    VSBY  WAVE
                                AIR SEA DIR/SP/G                  HT/PER
                 (UTC)          (F)     (DEG/KT/KT) (MB)    (MI)  (FT/S)
NY HARB ENTRANCE 2350            69 67  190/ 14/ 17 1012.6          2/ 7
20 S FIRE ISLAND 2350            70 69  200/ 10/ 12 1013.0          2/ 6
GREAT SOUTH BAY  2315            72 76  210/  6/  8   N/A
23 SSW MONTAUK P 2350            67 66              1013.9          2/ 5
15 E BARNEGAT LI 2330               67                N/A           2/ 5
HUDSON CANYON    2350            68 67  190/  8/  8 1013.8          3/ 6
KINGS POINT      2330            73 66  210/ 12/ 14 1012.7
EXECUTION ROCKS  2345            75     170/  8/ 14   N/A
CENTRAL LI SOUND 2245            73     210/ 10/ 14   N/A           1
EASTERN LI SOUND NOT AVBL
ROBBINS REEF     2324                   150/ 14/ 15 1013.1
$$


>>>>>>>>>>>>>>>>>>>>>>>>>>>> KEY <<<<<<<<<<<<<<<<<<<<<<<<<<<
>                                                          <
>     SKY/WX - Sky Condition/Present Weather               <
>     TMP    - Temperature in Fahrenheit                   <
>     DP     - Dew Point in Fahrenheit                     <
>     RH     - Relative Humidity in Percent                <
>     WIND   - Direction (from) and Speed in MPH           <
>     PRES   - Mean Sea Level Pressure (inches of Hg)      <
>     WCI    - Wind Chill Index                            <
>     VSB    - VISIBILITY IN MILES                         <
>     HX     - HEAT INDEX                                  <
>     TC     - TEMPERATURE IN CELSIUS                      <
>     VRB    - VARIABLE WIND DIRECTION                     <
>                                                          <
>>>>>>>>>>>>>>>>>>>>>>>>>>>> KEY <<<<<<<<<<<<<<<<<<<<<<<<<<<




USA.gov is the U.S. government's official web portal to all federal, state and local government web resources and services.